Regional Weather Roundup
Issued by NWS

Home | Current Version | Previous Version | Text Only | Print | Product List | Glossary Off
Versions: 1 2 3 4 5 6 7 8 9 10 11 12 13 14 15 16 17 18 19 20 21 22 23 24 25 26 27 28 29 30 31 32 33 34 35 36 37 38 39 40 41 42 43 44 45 46 47 48 49 50

000
ASUS44 KMEG 051710
RWRTN
TENNESSEE HOURLY STATE WEATHER ROUNDUP
NATIONAL WEATHER SERVICE MEMPHIS TN
1200 PM CDT SUN JUL 05 2015

TNZ002-004-019-021-049-052-054-088>092-051800-
WEST TENNESSEE

CITY           SKY/WX    TMP DP  RH WIND       PRES   REMARKS
MEMPHIS INTL   PTSUNNY   81  70  69 S10       30.10R
NWS MEMPHIS      N/A     83 N/A N/A MISG        N/A
JACKSON        PTSUNNY   83  70  64 S3        30.08F
DYERSBURG        N/A    N/A N/A N/A MISG        N/A
PARIS          MOSUNNY   81  66  61 VRB3      30.09S
LEXINGTON      PTSUNNY   79  70  73 S3        30.09S
$$

TNZ008-025-027-028-033-062-065-066-051800-
NORTH MIDDLE TENNESSEE

CITY           SKY/WX    TMP DP  RH WIND       PRES   REMARKS
NASHVILLE      CLOUDY    75  71  87 CALM      30.09F
CLARKSVILLE    MOSUNNY   82  67  60 CALM      30.08R
SMYRNA         PTSUNNY   79  70  74 W7        30.09F
COOKEVILLE     PTSUNNY   79  72  78 VRB5      30.08S
CROSSVILLE     PTSUNNY   74  66  76 N8        30.12S
$$

TNZ061-075-076-078-094-096-097-051800-
SOUTH MIDDLE TENNESSEE

CITY           SKY/WX    TMP DP  RH WIND       PRES   REMARKS
FAYETTEVILLE     N/A     75  68  78 CALM      30.13F
TULLAHOMA      PTSUNNY   77  68  73 W9        30.13S
WINCHESTER     PTSUNNY   75  70  83 SW7       30.13F
MCMINNVILLE    MOSUNNY   77  70  78 W7        30.11S
COLUMBIA       MOSUNNY   81  72  74 VRB3      30.09S
SHELBYVILLE    PTSUNNY   81  72  74 SW6         N/A
$$

TNZ017-018-042-046-047-051800-
NORTHEAST TENNESSEE

CITY           SKY/WX    TMP DP  RH WIND       PRES   REMARKS
TRI CITIES     PTSUNNY   81  65  58 VRB3      30.07F
ELIZABETHTON   MOSUNNY   81  64  57 E3        30.07F
$$

TNZ012-013-036-069-073-074-051800-
CENTRAL EAST TENNESSEE

CITY           SKY/WX    TMP DP  RH WIND       PRES   REMARKS
KNOXVILLE      CLOUDY    75  67  76 SW14      30.07S
OAK RIDGE      CLOUDY    72  68  87 W6        30.08F
GATLINBURG     PTSUNNY   77  66  69 NW6       30.06F
MORRISTOWN     SUNNY     79  70  73 SW9       30.08F
$$

TNZ083-085-099-051800-
SOUTHEAST TENNESSEE

CITY           SKY/WX    TMP DP  RH WIND       PRES   REMARKS
CHATTANOOGA    PTSUNNY   77  68  73 W9        30.11S
$$

SKY/WX REPORTED AS FAIR MEANS FEW OR NO CLOUDS BELOW
12 THOUSAND FEET.



USA.gov is the U.S. government's official web portal to all federal, state and local government web resources and services.